Location: Foulognes
(49.1413°N, 0.8183°W)
Time: 18:09:48
(UTC+00:00)

Cosmos 2228 - Pass Details

Date: 21 October 2019
Orbit: 588 x 619 km, 82.5° (Epoch: 21 November)

Event Time Altitude Azimuth Distance (km) Brightness Sun altitude
Rises 17:37:37 0° 189° (S) 2,872 6.7 -6.5°
Reaches altitude 10° 17:39:50 10° 189° (S) 1,968 5.9 -6.8°
Maximum altitude 17:44:12 87° 277° (W) 618 3.1 -7.5°
Drops below altitude 10° 17:48:34 10° 9° (N) 1,965 5.5 -8.2°
Sets 17:50:47 0° 10° (N) 2,869 6.3 -8.6°
